Location: Prescott
(34.5400°N, 112.4680°W)
Time: 00:30:28
(UTC-07:00)

ISS - Visible Passes

Search period start: 23 November 2017 00:00
Search period end: 03 December 2017 00:00
Orbit: 402 x 407 km, 51.6° (Epoch: 23 November)

Date Brightness Start Highest point End Pass type
(mag) Time Alt. Az. Time Alt. Az. Time Alt. Az.
23 Nov -1.5 19:04:05 10° S 19:05:02 16° S 19:05:02 16° S visible
24 Nov -1.6 18:13:24 10° SSE 18:14:43 12° SE 18:15:24 11° ESE visible
24 Nov -0.5 19:47:40 10° WSW 19:48:06 13° WSW 19:48:06 13° WSW visible
25 Nov -3.8 18:55:17 10° SW 18:58:21 72° S 18:58:21 72° S visible
26 Nov -2.8 18:03:20 10° SSW 18:06:18 32° SE 18:08:32 15° ENE visible
26 Nov -0.8 19:40:14 10° W 19:41:12 15° WNW 19:41:12 15° WNW visible
27 Nov -2.7 18:47:17 10° WSW 18:50:22 38° NW 18:51:17 30° N visible
28 Nov -3.8 17:54:43 10° SW 17:58:00 82° NW 18:01:16 10° NE visible
28 Nov -0.6 19:33:46 10° NW 19:33:55 10° NW 19:33:55 10° NW visible
29 Nov -1.5 18:39:58 10° WNW 18:42:18 18° NNW 18:43:49 14° N visible
30 Nov -2.3 17:46:50 10° W 17:49:47 30° NW 17:52:44 10° NNE visible
